Pineville, WV

10:34 PM EST on December 08, 2019 (GMT -0500)
Pineville

Weather History for KI16 - October, 2019

Change the Weather History Date:

Friday, October 25, 2019

  Actual Average (KBKW) Record (KBKW)
Temperature  
Mean Temperature 52 °F -  
Max Temperature 66 °F 59 °F 79 °F (1939)
Min Temperature 39 °F 42 °F 15 °F (1907)
Degree Days  
Heating Degree Days 12    
Growing Degree Days 2 (Base 50)    
Moisture  
Dew Point 44 °F    
Average Humidity 79    
Maximum Humidity 98    
Minimum Humidity 35    
Precipitation  
Precipitation 0.00 in - - ()
Sea Level Pressure  
Sea Level Pressure 30.32 in    
Wind  
Wind Speed - ()    
Max Wind Speed -    
Max Gust Speed -    
Visibility 10.0 miles    
Events Rain    
Averages and records for this station are not official NWS values.
T = Trace of Precipitation, MM = Missing Value Source: Averaged Metar Reports

Daily Weather History Graph

Daily Weather History Graph

Search for Another Location

Airport or City:

Astronomy

Oct. 25, 2019 Rise Set
Actual Time 7:43 AM EDT 6:36 PM EDT
Civil Twilight 7:17 AM EDT 7:02 PM EDT
Nautical Twilight 6:46 AM EDT 7:33 PM EDT
Astronomical Twilight 6:16 AM EDT 8:03 PM EDT
Moon 4:30 AM EDT (10/25) 5:32 PM EDT (10/25)
Length of Visible Light 11h 45m
Length of Day
10h 52m
Waning Crescent, 9% of the Moon is Illuminated
Oct 25
Waning Crescent
Oct 27
New
Nov 4
First Quarter
Nov 12
Full
Nov 19
Last Quarter

Hourly Weather History & Observations

Time (EDT) Temp. Dew Point Humidity Pressure Visibility Wind Dir Wind Speed Gust Speed Precip Events Conditions
12:15 AM 42.6 °F 39.6 °F 89% 30.33 in 10.0 mi North - - N/A   Unknown
12:35 AM 42.4 °F 39.7 °F 90% 30.33 in 10.0 mi North - - N/A   Unknown
12:55 AM 41.4 °F 38.8 °F 91% 30.33 in 10.0 mi North - - N/A   Unknown
1:15 AM 41.4 °F 39.4 °F 93% 30.33 in 10.0 mi North - - N/A   Unknown
1:35 AM 41.5 °F 39.7 °F 93% 30.33 in 10.0 mi North - - N/A   Unknown
1:55 AM 41.2 °F 39.4 °F 93% 30.33 in 10.0 mi North - - N/A   Unknown
2:15 AM 41.0 °F 38.8 °F 92% 30.33 in 10.0 mi North - - N/A   Unknown
2:35 AM 40.6 °F 38.7 °F 93% 30.34 in 10.0 mi North - - N/A   Clear
2:55 AM 40.5 °F 38.8 °F 94% 30.34 in 10.0 mi North - - N/A   Clear
3:15 AM 40.3 °F 38.5 °F 93% 30.34 in 10.0 mi North - - N/A   Clear
3:35 AM 40.1 °F 38.3 °F 93% 30.34 in 10.0 mi North - - N/A   Clear
3:55 AM 40.5 °F 38.7 °F 93% 30.33 in 10.0 mi North - - N/A   Clear
4:15 AM 40.5 °F 38.8 °F 94% 30.33 in 10.0 mi North - - N/A   Clear
4:35 AM 40.6 °F 39.2 °F 95% 30.33 in 10.0 mi North - - N/A   Clear
4:55 AM 40.5 °F 39.2 °F 95% 30.32 in 10.0 mi North - - N/A   Clear
5:15 AM 40.3 °F 38.8 °F 95% 30.33 in 10.0 mi North - - N/A   Unknown
5:35 AM 40.1 °F 39.0 °F 96% 30.34 in 10.0 mi North - - N/A   Unknown
5:55 AM 40.3 °F 39.0 °F 95% 30.34 in 10.0 mi North - - N/A   Unknown
6:15 AM 40.5 °F 39.4 °F 96% 30.34 in 10.0 mi North - - N/A   Unknown
6:35 AM 40.1 °F 38.8 °F 95% 30.34 in 10.0 mi North - - N/A   Unknown
6:55 AM 40.1 °F 38.8 °F 95% 30.35 in 10.0 mi North - - N/A   Unknown
7:15 AM 40.1 °F 39.2 °F 97% 30.35 in 10.0 mi North - - N/A   Unknown
7:35 AM 39.7 °F 38.7 °F 96% 30.36 in 10.0 mi North - - N/A   Unknown
7:55 AM 39.9 °F 38.8 °F 96% 30.36 in 10.0 mi North - - N/A   Unknown
8:15 AM 40.5 °F 39.6 °F 97% 30.36 in 10.0 mi North - - N/A   Unknown
8:35 AM 41.4 °F 40.5 °F 97% 30.37 in 10.0 mi North - - N/A   Clear
8:55 AM 42.6 °F 41.4 °F 95% 30.37 in 10.0 mi North - - N/A   Clear
9:15 AM 43.9 °F 41.9 °F 93% 30.38 in 10.0 mi North - - N/A   Unknown
9:35 AM 46.2 °F 42.8 °F 88% 30.38 in 10.0 mi North - - N/A   Unknown
9:55 AM 48.7 °F 43.9 °F 83% 30.38 in 10.0 mi North - - N/A   Unknown
10:15 AM 51.8 °F 43.9 °F 74% 30.36 in 10.0 mi North - - N/A   Unknown
10:35 AM 52.7 °F 46.0 °F 78% 30.36 in 10.0 mi North - - N/A   Unknown
10:55 AM 56.1 °F 45.9 °F 68% 30.36 in 10.0 mi North - - N/A   Unknown
11:15 AM 59.2 °F 45.5 °F 60% 30.35 in 10.0 mi North - - N/A   Unknown
11:35 AM 61.2 °F 43.0 °F 51% 30.35 in 10.0 mi North - - N/A   Clear
11:55 AM 64.6 °F 42.8 °F 45% 30.34 in 10.0 mi North - - N/A   Clear
12:15 PM 64.0 °F 40.8 °F 43% 30.34 in 10.0 mi North - - N/A   Unknown
12:35 PM 63.0 °F 41.0 °F 45% 30.33 in 10.0 mi North - - N/A   Unknown
12:55 PM 64.6 °F 39.6 °F 40% 30.32 in 10.0 mi North - - N/A   Unknown
1:15 PM 65.3 °F 39.7 °F 39% 30.31 in 10.0 mi North - - N/A   Unknown
1:30 PM 65.7 °F 40.1 °F 39% 30.30 in 10.0 mi North - - N/A   Clear
1:55 PM 66.2 °F 37.9 °F 35% 30.29 in 10.0 mi North - - N/A   Clear
2:15 PM 65.8 °F 38.1 °F 36% 30.28 in 10.0 mi North - - N/A   Clear
2:35 PM 66.0 °F 38.3 °F 36% 30.28 in 10.0 mi North - - N/A   Clear
2:55 PM 66.2 °F 39.2 °F 37% 30.28 in 10.0 mi North - - N/A   Mostly Cloudy
3:15 PM 66.2 °F 39.0 °F 37% 30.27 in 10.0 mi North - - N/A   Overcast
3:35 PM 65.8 °F 40.6 °F 40% 30.26 in 10.0 mi North - - N/A   Overcast
3:55 PM 63.7 °F 46.4 °F 53% 30.26 in 10.0 mi North - - N/A   Mostly Cloudy
4:15 PM 62.1 °F 48.0 °F 60% 30.26 in 10.0 mi North - - N/A Rain Light Rain
4:35 PM 60.8 °F 49.1 °F 65% 30.26 in 10.0 mi North - - N/A   Light Drizzle
4:55 PM 60.1 °F 49.8 °F 69% 30.27 in 10.0 mi North - - N/A   Mostly Cloudy
5:15 PM 59.7 °F 49.6 °F 69% 30.27 in 10.0 mi North - - N/A   Light Drizzle
5:35 PM 59.2 °F 50.0 °F 72% 30.26 in 10.0 mi North - - N/A   Light Drizzle
5:55 PM 58.6 °F 49.8 °F 72% 30.26 in 10.0 mi North - - N/A   Overcast
6:15 PM 58.1 °F 49.5 °F 73% 30.27 in 10.0 mi North - - N/A   Overcast
6:35 PM 57.2 °F 49.3 °F 75% 30.28 in 10.0 mi North - - N/A   Light Drizzle
6:55 PM 55.9 °F 50.4 °F 82% 30.30 in 10.0 mi North - - N/A   Drizzle
7:15 PM 54.9 °F 50.5 °F 85% 30.30 in 10.0 mi North - - N/A   Drizzle
7:35 PM 54.3 °F 51.1 °F 89% 30.30 in 10.0 mi North - - N/A Rain Rain
7:55 PM 54.0 °F 51.8 °F 92% 30.31 in 10.0 mi North - - N/A   Light Drizzle
8:15 PM 54.0 °F 52.0 °F 93% 30.32 in 10.0 mi North - - N/A   Drizzle
8:35 PM 53.8 °F 52.0 °F 94% 30.31 in 10.0 mi North - - N/A   Drizzle
8:55 PM 52.9 °F 51.1 °F 94% 30.30 in 10.0 mi North - - N/A Rain Light Rain
9:15 PM 53.1 °F 51.8 °F 95% 30.30 in 10.0 mi North - - N/A Rain Light Rain
9:35 PM 52.9 °F 51.8 °F 96% 30.30 in 10.0 mi North - - N/A   Light Drizzle
9:55 PM 52.9 °F 51.8 °F 96% 30.30 in 10.0 mi North - - N/A   Light Drizzle
10:15 PM 52.7 °F 51.4 °F 95% 30.30 in 10.0 mi North - - N/A   Scattered Clouds
10:35 PM 52.3 °F 51.4 °F 97% 30.30 in 10.0 mi North - - N/A   Clear
10:55 PM 52.2 °F 51.3 °F 97% 30.29 in 10.0 mi North - - N/A   Mostly Cloudy
11:15 PM 51.8 °F 50.9 °F 97% 30.28 in 10.0 mi North - - N/A   Mostly Cloudy
11:35 PM 51.4 °F 50.9 °F 98% 30.27 in 10.0 mi North - - N/A   Mostly Cloudy
11:55 PM 52.0 °F 51.4 °F 98% 30.25 in 10.0 mi North - - N/A   Overcast